sat.trackr.live / text

‹ back to catalog

STARLINK-34384

NORAD 64312 · 2025-123X

PAYLOAD ACTIVE UNKNOWN

§ Identity

Operator
Country
US
Launch date
2025-06-08
Launch site
AFWTR
Launch vehicle
Mass (kg)
RCS (m²)

Purposes: comms

External: N2YO · Heavens-Above · Gunter

§ Orbital elements

Epoch: 2026-09-20T20:46:14.397024Z

Period
94.09 min
Inclination
70.0004°
Eccentricity
0.0003676
Mean motion
15.30398486 rev/d
Perigee alt
472.1 km
Apogee alt
477.1 km
Semi-major
6,852.8 km
B*
3.5901e-4
RAAN
59.9733°
Arg perigee
273.1406°
Mean anomaly
86.9349°
Rev number
7,091

§ Raw data

STARLINK-343841 64312U 25123X   26263.86544441  .00010470  00000+0  35901-3 0  99962 64312  70.0004  59.9733 0003676 273.1406  86.9349 15.30398486 70913

JSON: /api/v1/satellites/64312 · /tle

For live sub-satellite position, see the globe view (requires WebGL).

§ Visibility from observer

Set your observer location to see the next 7 days of passes ≥ 10°. The values pass through the URL so the page stays shareable.

No JS? Fill the form by hand. The geolocation button needs JavaScript.